QPF
0.00 0.00 0.00 0.00 0.00 0.00 0.00 0.00 0.00 0.00 0.00 0.00 0.00 0.00 0.00 0.00 0.00 0.00 0.00 0.00 0.00 0.00 0.00 0.00 0.00 0.00 0.00 0.01 0.01 0.01 0.02 0.03 0.06 0.08 0.12 0.16 0.23 0.28 0.30 0.30 0.29 0.27 0.26 0.28
0.00 0.00 0.00 0.00 0.00 0.00 0.00 0.00 0.00 0.00 0.00 0.00 0.00 0.00 0.00 0.00 0.00 0.00 0.00 0.00 0.00 0.00 0.00 0.00 0.00 0.00 0.00 0.00 0.01 0.02 0.03 0.03 0.07 0.15 0.24 0.34 0.41 0.46 0.53 0.50 0.41 0.36 0.37 0.43
0.00 0.00 0.00 0.00 0.00 0.00 0.00 0.00 0.00 0.00 0.00 0.00 0.00 0.00 0.00 0.00 0.00 0.00 0.00 0.00 0.00 0.00 0.00 0.00 0.00 0.00 0.00 0.00 0.01 0.03 0.03 0.04 0.09 0.21 0.31 0.43 0.53 0.59 0.60 0.55 0.46 0.41 0.43 0.46
0.00 0.00 0.00 0.00 0.00 0.00 0.00 0.00 0.00 0.00 0.00 0.00 0.00 0.00 0.00 0.00 0.00 0.00 0.00 0.00 0.00 0.00 0.00 0.00 0.00 0.00 0.00 0.00 0.01 0.02 0.03 0.04 0.09 0.18 0.29 0.40 0.54 0.57 0.55 0.48 0.42 0.39 0.39 0.35
0.00 0.00 0.00 0.00 0.00 0.00 0.00 0.00 0.00 0.00 0.00 0.00 0.00 0.00 0.00 0.00 0.00 0.00 0.00 0.00 0.00 0.00 0.00 0.00 0.00 0.00 0.00 0.00 0.01 0.02 0.03 0.04 0.07 0.17 0.29 0.38 0.48 0.50 0.47 0.43 0.36 0.35 0.33 0.29
0.00 0.00 0.00 0.00 0.00 0.00 0.00 0.00 0.00 0.00 0.00 0.00 0.00 0.00 0.00 0.00 0.00 0.00 0.01 0.01 0.01 0.01 0.01 0.01 0.01 0.01 0.01 0.01 0.01 0.02 0.03 0.05 0.09 0.15 0.22 0.25 0.29 0.32 0.34 0.33 0.31 0.33 0.30 0.25
0.00 0.00 0.00 0.00 0.00 0.00 0.00 0.00 0.00 0.00 0.00 0.00 0.00 0.00 0.00 0.00 0.00 0.01 0.01 0.01 0.02 0.01 0.01 0.01 0.01 0.01 0.01 0.02 0.02 0.03 0.04 0.08 0.10 0.13 0.15 0.18 0.19 0.22 0.25 0.28 0.28 0.24 0.18 0.13
0.00 0.00 0.00 0.00 0.00 0.00 0.00 0.00 0.00 0.00 0.00 0.00 0.00 0.00 0.00 0.01 0.01 0.01 0.01 0.02 0.02 0.02 0.02 0.02 0.02 0.02 0.02 0.03 0.03 0.04 0.06 0.09 0.10 0.10 0.11 0.12 0.13 0.15 0.15 0.15 0.12 0.10 0.07 0.05
0.00 0.00 0.00 0.00 0.00 0.00 0.00 0.00 0.00 0.00 0.00 0.00 0.00 0.00 0.00 0.01 0.01 0.01 0.01 0.02 0.02 0.03 0.03 0.03 0.03 0.02 0.02 0.03 0.04 0.04 0.05 0.05 0.06 0.06 0.07 0.07 0.06 0.05 0.05 0.04 0.03 0.03 0.02 0.02
0.00 0.00 0.00 0.00 0.00 0.00 0.00 0.00 0.00 0.00 0.00 0.00 0.00 0.00 0.00 0.01 0.01 0.02 0.02 0.02 0.03 0.03 0.03 0.03 0.03 0.02 0.02 0.02 0.03 0.03 0.03 0.03 0.03 0.03 0.03 0.04 0.03 0.03 0.03 0.02 0.02 0.02 0.01 0.01
0.00 0.00 0.00 0.00 0.00 0.00 0.00 0.00 0.00 0.00 0.00 0.00 0.00 0.00 0.00 0.01 0.01 0.02 0.02 0.03 0.03 0.03 0.03 0.02 0.03 0.02 0.02 0.02 0.02 0.02 0.02 0.01 0.01 0.02 0.02 0.02 0.02 0.02 0.02 0.01 0.01 0.01 0.01 0.01
0.00 0.00 0.00 0.00 0.00 0.00 0.00 0.00 0.00 0.00 0.00 0.00 0.00 0.00 0.01 0.01 0.02 0.03 0.03 0.03 0.03 0.03 0.03 0.02 0.02 0.01 0.01 0.01 0.01 0.00 0.00 0.00 0.00 0.00 0.00 0.00 0.00 0.01 0.01 0.01 0.01 0.01 0.01 0.00
0.00 0.00 0.00 0.00 0.00 0.00 0.00 0.00 0.00 0.00 0.00 0.00 0.00 0.00 0.01 0.02 0.03 0.04 0.04 0.03 0.03 0.03 0.03 0.02 0.01 0.01 0.01 0.00 0.00 0.00 0.00 0.00 0.00 0.00 0.00 0.00 0.00 0.00 0.01 0.01 0.00 0.00 0.00 0.01
0.00 0.00 0.00 0.00 0.00 0.00 0.00 0.00 0.00 0.00 0.00 0.00 0.00 0.01 0.02 0.03 0.04 0.05 0.05 0.04 0.04 0.03 0.02 0.02 0.01 0.01 0.01 0.00 0.00 0.00 0.00 0.00 0.00 0.00 0.00 0.00 0.00 0.00 0.00 0.00 0.01 0.01 0.01 0.01
0.00 0.00 0.00 0.00 0.00 0.00 0.00 0.00 0.00 0.00 0.00 0.00 0.00 0.01 0.02 0.04 0.06 0.07 0.07 0.07 0.06 0.04 0.02 0.02 0.01 0.01 0.01 0.00 0.00 0.00 0.00 0.00 0.00 0.00 0.00 0.01 0.01 0.01 0.01 0.01 0.02 0.02 0.02 0.02
0.00 0.00 0.00 0.00 0.00 0.00 0.00 0.00 0.00 0.00 0.01 0.01 0.01 0.02 0.03 0.04 0.06 0.07 0.07 0.06 0.06 0.04 0.02 0.01 0.01 0.01 0.01 0.01 0.00 0.00 0.00 0.01 0.01 0.00 0.01 0.01 0.01 0.02 0.02 0.02 0.02 0.02 0.01 0.01
0.00 0.00 0.01 0.00 0.00 0.00 0.01 0.01 0.01 0.01 0.01 0.02 0.02 0.03 0.03 0.04 0.06 0.06 0.05 0.05 0.04 0.03 0.02 0.02 0.01 0.01 0.01 0.01 0.01 0.01 0.01 0.01 0.01 0.01 0.02 0.02 0.02 0.02 0.02 0.02 0.01 0.01 0.01 0.01
0.00 0.01 0.01 0.01 0.01 0.01 0.01 0.00 0.01 0.01 0.02 0.03 0.03 0.04 0.04 0.06 0.07 0.07 0.06 0.06 0.06 0.05 0.04 0.03 0.02 0.01 0.01 0.01 0.01 0.01 0.01 0.01 0.01 0.02 0.02 0.02 0.01 0.01 0.01 0.01 0.01 0.01 0.01 0.01
0.00 0.02 0.03 0.02 0.02 0.02 0.02 0.01 0.01 0.03 0.04 0.02 0.03 0.04 0.05 0.06 0.06 0.05 0.05 0.05 0.06 0.05 0.04 0.04 0.03 0.03 0.03 0.03 0.02 0.02 0.02 0.02 0.02 0.02 0.02 0.01 0.01 0.01 0.01 0.01 0.01 0.01 0.01 0.01
0.00 0.01 0.03 0.03 0.03 0.04 0.04 0.01 0.02 0.05 0.07 0.03 0.03 0.04 0.05 0.05 0.05 0.03 0.02 0.02 0.03 0.04 0.04 0.03 0.02 0.02 0.01 0.01 0.01 0.01 0.01 0.02 0.01 0.01 0.01 0.01 0.01 0.00 0.00 0.01 0.01 0.01 0.01 0.01
0.02 0.03 0.03 0.04 0.05 0.06 0.02 0.01 0.04 0.09 0.08 0.04 0.04 0.04 0.05 0.05 0.05 0.03 0.02 0.02 0.03 0.03 0.02 0.02 0.01 0.01 0.01 0.01 0.01 0.01 0.01 0.01 0.01 0.01 0.00 0.00 0.00 0.00 0.00 0.01 0.01 0.01 0.00 0.01
0.02 0.04 0.05 0.05 0.07 0.07 0.03 0.03 0.07 0.08 0.04 0.04 0.05 0.04 0.04 0.03 0.03 0.02 0.02 0.02 0.01 0.01 0.01 0.01 0.01 0.01 0.01 0.01 0.01 0.01 0.01 0.01 0.01 0.01 0.00 0.00 0.00 0.00 0.00 0.01 0.01 0.01 0.01 0.01
0.02 0.03 0.05 0.07 0.08 0.06 0.04 0.03 0.03 0.03 0.04 0.04 0.05 0.03 0.02 0.01 0.01 0.01 0.01 0.01 0.01 0.01 0.01 0.01 0.01 0.01 0.01 0.01 0.01 0.01 0.01 0.01 0.01 0.01 0.01 0.01 0.01 0.01 0.01 0.01 0.01 0.01 0.01 0.01
0.02 0.01 0.02 0.04 0.04 0.03 0.02 0.02 0.01 0.02 0.03 0.03 0.03 0.03 0.02 0.02 0.01 0.00 0.00 0.01 0.01 0.01 0.01 0.01 0.01 0.01 0.01 0.01 0.01 0.01 0.01 0.02 0.02 0.02 0.02 0.02 0.02 0.02 0.01 0.01 0.01 0.01 0.02 0.02
0.01 0.01 0.02 0.03 0.04 0.03 0.03 0.02 0.01 0.00 0.01 0.01 0.01 0.01 0.01 0.01 0.01 0.01 0.01 0.01 0.01 0.01 0.01 0.01 0.01 0.01 0.01 0.01 0.01 0.01 0.01 0.01 0.02 0.02 0.01 0.02 0.01 0.01 0.01 0.01 0.01 0.01 0.01 0.01
0.01 0.01 0.02 0.02 0.03 0.03 0.04 0.03 0.01 0.00 0.00 0.00 0.00 0.00 0.01 0.01 0.01 0.01 0.01 0.01 0.01 0.01 0.01 0.01 0.01 0.01 0.01 0.01 0.00 0.00 0.01 0.01 0.02 0.02 0.01 0.01 0.01 0.01 0.01 0.02 0.02 0.01 0.00 0.00
MSLP
1011.57 1011.86 1012.06 1012.17 1012.20 1012.19 1012.13 1012.03 1011.87 1011.63 1011.28 1010.83 1010.26 1009.62 1008.95 1008.28 1007.68 1007.17 1006.77 1006.49 1006.30 1006.19 1006.13 1006.12 1006.17 1006.30 1006.54 1006.93 1007.49 1008.21 1009.09 1010.07 1011.10 1012.12 1013.07 1013.93 1014.67 1015.30 1015.83 1016.31 1016.76 1017.19 1017.62 1018.04
1011.62 1011.83 1011.97 1012.03 1012.05 1012.04 1012.01 1011.95 1011.83 1011.63 1011.33 1010.91 1010.38 1009.78 1009.14 1008.53 1008.00 1007.56 1007.22 1006.99 1006.82 1006.69 1006.58 1006.47 1006.40 1006.39 1006.49 1006.75 1007.21 1007.86 1008.71 1009.69 1010.74 1011.80 1012.79 1013.69 1014.45 1015.09 1015.63 1016.11 1016.55 1016.98 1017.43 1017.88
1011.50 1011.66 1011.74 1011.77 1011.79 1011.81 1011.82 1011.82 1011.77 1011.63 1011.38 1011.02 1010.56 1010.02 1009.47 1008.95 1008.52 1008.19 1007.95 1007.80 1007.69 1007.58 1007.44 1007.27 1007.09 1006.96 1006.92 1007.03 1007.35 1007.90 1008.65 1009.58 1010.59 1011.63 1012.62 1013.51 1014.26 1014.89 1015.41 1015.86 1016.29 1016.72 1017.17 1017.65
1011.23 1011.33 1011.38 1011.41 1011.44 1011.50 1011.57 1011.64 1011.67 1011.61 1011.44 1011.16 1010.78 1010.35 1009.91 1009.52 1009.22 1009.03 1008.93 1008.90 1008.88 1008.82 1008.70 1008.49 1008.24 1007.99 1007.82 1007.78 1007.95 1008.35 1008.98 1009.80 1010.72 1011.69 1012.62 1013.46 1014.17 1014.76 1015.25 1015.68 1016.09 1016.51 1016.97 1017.47
1010.84 1010.90 1010.92 1010.95 1011.01 1011.12 1011.26 1011.41 1011.52 1011.55 1011.48 1011.29 1011.03 1010.71 1010.41 1010.17 1010.03 1010.01 1010.07 1010.18 1010.28 1010.31 1010.23 1010.02 1009.73 1009.39 1009.10 1008.93 1008.94 1009.18 1009.66 1010.33 1011.13 1011.99 1012.83 1013.59 1014.25 1014.79 1015.24 1015.65 1016.05 1016.47 1016.94 1017.46
1010.40 1010.43 1010.43 1010.46 1010.54 1010.69 1010.89 1011.10 1011.30 1011.42 1011.45 1011.37 1011.23 1011.05 1010.90 1010.82 1010.86 1011.01 1011.25 1011.51 1011.75 1011.88 1011.87 1011.70 1011.38 1011.00 1010.62 1010.33 1010.20 1010.29 1010.61 1011.12 1011.78 1012.51 1013.24 1013.92 1014.51 1015.01 1015.44 1015.83 1016.22 1016.65 1017.14 1017.67
1010.02 1009.99 1009.96 1009.97 1010.06 1010.22 1010.46 1010.73 1010.98 1011.18 1011.30 1011.34 1011.32 1011.28 1011.28 1011.38 1011.59 1011.92 1012.32 1012.75 1013.12 1013.37 1013.45 1013.32 1013.03 1012.63 1012.20 1011.82 1011.59 1011.54 1011.71 1012.08 1012.60 1013.20 1013.83 1014.43 1014.96 1015.43 1015.84 1016.23 1016.64 1017.08 1017.58 1018.12
1009.75 1009.66 1009.58 1009.55 1009.61 1009.76 1010.00 1010.28 1010.57 1010.82 1011.02 1011.15 1011.25 1011.35 1011.50 1011.76 1012.14 1012.62 1013.19 1013.76 1014.27 1014.63 1014.80 1014.75 1014.51 1014.12 1013.68 1013.26 1012.96 1012.82 1012.88 1013.13 1013.53 1014.03 1014.57 1015.10 1015.59 1016.04 1016.45 1016.85 1017.26 1017.72 1018.22 1018.77
1009.66 1009.49 1009.33 1009.23 1009.23 1009.33 1009.53 1009.79 1010.07 1010.35 1010.59 1010.80 1011.00 1011.22 1011.52 1011.93 1012.45 1013.09 1013.79 1014.49 1015.11 1015.58 1015.85 1015.88 1015.70 1015.37 1014.95 1014.54 1014.22 1014.03 1014.04 1014.22 1014.54 1014.96 1015.44 1015.92 1016.38 1016.81 1017.21 1017.62 1018.04 1018.51 1019.00 1019.53
1009.74 1009.48 1009.23 1009.04 1008.95 1008.96 1009.08 1009.28 1009.53 1009.79 1010.06 1010.32 1010.61 1010.94 1011.36 1011.90 1012.56 1013.32 1014.13 1014.94 1015.66 1016.22 1016.57 1016.69 1016.60 1016.34 1015.99 1015.63 1015.34 1015.17 1015.16 1015.31 1015.59 1015.97 1016.41 1016.85 1017.28 1017.70 1018.09 1018.49 1018.91 1019.35 1019.83 1020.32
1009.98 1009.63 1009.28 1008.99 1008.80 1008.70 1008.72 1008.82 1009.01 1009.23 1009.50 1009.80 1010.15 1010.58 1011.11 1011.76 1012.53 1013.39 1014.30 1015.18 1015.97 1016.61 1017.04 1017.25 1017.25 1017.09 1016.83 1016.56 1016.34 1016.23 1016.26 1016.42 1016.70 1017.06 1017.47 1017.88 1018.29 1018.67 1019.03 1019.40 1019.78 1020.18 1020.61 1021.04
1010.31 1009.89 1009.46 1009.08 1008.78 1008.58 1008.48 1008.49 1008.59 1008.77 1009.02 1009.34 1009.75 1010.26 1010.88 1011.63 1012.49 1013.44 1014.41 1015.35 1016.20 1016.89 1017.39 1017.67 1017.76 1017.71 1017.57 1017.41 1017.29 1017.27 1017.36 1017.56 1017.86 1018.22 1018.60 1018.98 1019.34 1019.66 1019.98 1020.28 1020.60 1020.94 1021.29 1021.65
1010.68 1010.21 1009.74 1009.30 1008.91 1008.62 1008.43 1008.35 1008.38 1008.50 1008.73 1009.07 1009.52 1010.09 1010.80 1011.63 1012.57 1013.58 1014.60 1015.59 1016.47 1017.19 1017.74 1018.08 1018.26 1018.30 1018.27 1018.23 1018.23 1018.30 1018.47 1018.72 1019.05 1019.40 1019.76 1020.09 1020.38 1020.64 1020.87 1021.10 1021.33 1021.58 1021.86 1022.14
1011.04 1010.58 1010.09 1009.62 1009.20 1008.85 1008.59 1008.45 1008.41 1008.50 1008.72 1009.07 1009.56 1010.19 1010.96 1011.86 1012.86 1013.91 1014.97 1015.97 1016.87 1017.62 1018.18 1018.58 1018.82 1018.94 1019.01 1019.08 1019.17 1019.34 1019.57 1019.87 1020.21 1020.55 1020.87 1021.14 1021.36 1021.53 1021.67 1021.80 1021.94 1022.10 1022.30 1022.50
1011.38 1010.95 1010.50 1010.05 1009.63 1009.27 1008.98 1008.80 1008.73 1008.80 1009.01 1009.38 1009.90 1010.58 1011.41 1012.36 1013.40 1014.49 1015.56 1016.57 1017.46 1018.21 1018.78 1019.19 1019.47 1019.66 1019.80 1019.94 1020.11 1020.34 1020.62 1020.95 1021.28 1021.60 1021.87 1022.08 1022.21 1022.29 1022.33 1022.37 1022.42 1022.50 1022.63 1022.78
1011.68 1011.33 1010.95 1010.56 1010.19 1009.85 1009.58 1009.39 1009.32 1009.39 1009.61 1009.99 1010.54 1011.26 1012.12 1013.11 1014.18 1015.28 1016.35 1017.35 1018.22 1018.94 1019.51 1019.92 1020.21 1020.42 1020.59 1020.78 1020.99 1021.25 1021.55 1021.88 1022.19 1022.47 1022.68 1022.82 1022.88 1022.88 1022.83 1022.79 1022.77 1022.80 1022.88 1023.00
1011.98 1011.72 1011.43 1011.13 1010.83 1010.56 1010.33 1010.17 1010.12 1010.20 1010.44 1010.84 1011.41 1012.15 1013.04 1014.05 1015.12 1016.22 1017.27 1018.24 1019.08 1019.76 1020.29 1020.68 1020.96 1021.17 1021.35 1021.53 1021.75 1022.01 1022.30 1022.60 1022.88 1023.11 1023.26 1023.34 1023.33 1023.27 1023.17 1023.08 1023.02 1023.02 1023.07 1023.18
1012.29 1012.12 1011.94 1011.74 1011.53 1011.34 1011.17 1011.07 1011.05 1011.16 1011.41 1011.83 1012.41 1013.17 1014.06 1015.06 1016.12 1017.19 1018.21 1019.13 1019.93 1020.57 1021.06 1021.41 1021.65 1021.83 1021.99 1022.15 1022.34 1022.57 1022.82 1023.08 1023.31 1023.49 1023.59 1023.62 1023.58 1023.48 1023.36 1023.25 1023.19 1023.18 1023.24 1023.36
1012.62 1012.54 1012.45 1012.35 1012.24 1012.13 1012.04 1011.99 1012.03 1012.17 1012.44 1012.86 1013.45 1014.19 1015.06 1016.04 1017.06 1018.09 1019.06 1019.93 1020.67 1021.27 1021.71 1022.01 1022.22 1022.36 1022.47 1022.59 1022.74 1022.92 1023.12 1023.32 1023.50 1023.64 1023.71 1023.72 1023.66 1023.56 1023.45 1023.36 1023.31 1023.32 1023.40 1023.54
1012.97 1012.96 1012.94 1012.93 1012.90 1012.88 1012.86 1012.88 1012.97 1013.14 1013.43 1013.85 1014.43 1015.14 1015.97 1016.90 1017.87 1018.84 1019.75 1020.57 1021.26 1021.80 1022.19 1022.46 1022.62 1022.72 1022.80 1022.87 1022.97 1023.09 1023.24 1023.39 1023.53 1023.63 1023.68 1023.68 1023.64 1023.56 1023.48 1023.43 1023.41 1023.46 1023.57 1023.73
1013.33 1013.36 1013.40 1013.46 1013.51 1013.56 1013.62 1013.70 1013.83 1014.03 1014.34 1014.76 1015.30 1015.98 1016.76 1017.62 1018.52 1019.41 1020.26 1021.01 1021.64 1022.14 1022.49 1022.73 1022.86 1022.94 1022.97 1023.01 1023.06 1023.14 1023.23 1023.34 1023.44 1023.52 1023.57 1023.58 1023.57 1023.53 1023.50 1023.50 1023.53 1023.62 1023.75 1023.91
1013.67 1013.73 1013.82 1013.93 1014.04 1014.16 1014.29 1014.43 1014.61 1014.85 1015.16 1015.57 1016.08 1016.70 1017.41 1018.19 1019.01 1019.82 1020.59 1021.28 1021.86 1022.31 1022.64 1022.86 1022.98 1023.03 1023.05 1023.06 1023.08 1023.11 1023.17 1023.24 1023.32 1023.39 1023.44 1023.48 1023.50 1023.51 1023.54 1023.59 1023.67 1023.78 1023.93 1024.09
1013.98 1014.06 1014.18 1014.34 1014.52 1014.70 1014.89 1015.10 1015.32 1015.59 1015.91 1016.30 1016.78 1017.34 1017.97 1018.67 1019.39 1020.12 1020.80 1021.42 1021.95 1022.37 1022.68 1022.89 1023.00 1023.06 1023.07 1023.06 1023.06 1023.07 1023.10 1023.14 1023.20 1023.26 1023.33 1023.38 1023.45 1023.51 1023.59 1023.68 1023.80 1023.94 1024.10 1024.26
1014.25 1014.35 1014.51 1014.71 1014.95 1015.20 1015.46 1015.72 1016.00 1016.29 1016.63 1017.00 1017.44 1017.94 1018.49 1019.09 1019.72 1020.35 1020.95 1021.51 1021.99 1022.38 1022.67 1022.87 1023.00 1023.05 1023.07 1023.06 1023.04 1023.03 1023.04 1023.06 1023.10 1023.16 1023.23 1023.31 1023.40 1023.51 1023.64 1023.77 1023.93 1024.09 1024.24 1024.39
1014.48 1014.60 1014.80 1015.06 1015.35 1015.67 1016.00 1016.33 1016.66 1016.99 1017.33 1017.70 1018.10 1018.53 1019.01 1019.52 1020.05 1020.59 1021.11 1021.59 1022.02 1022.38 1022.66 1022.86 1022.99 1023.06 1023.08 1023.07 1023.04 1023.01 1022.99 1022.99 1023.01 1023.06 1023.13 1023.23 1023.35 1023.49 1023.65 1023.83 1024.01 1024.19 1024.35 1024.49
1014.67 1014.83 1015.07 1015.39 1015.75 1016.13 1016.53 1016.93 1017.31 1017.68 1018.04 1018.40 1018.76 1019.14 1019.55 1019.97 1020.41 1020.86 1021.30 1021.72 1022.10 1022.43 1022.70 1022.89 1023.02 1023.09 1023.12 1023.10 1023.05 1023.00 1022.96 1022.93 1022.92 1022.95 1023.02 1023.12 1023.26 1023.43 1023.62 1023.83 1024.04 1024.24 1024.42 1024.55
Thickness
5712 5711 5713 5721 5726 5733 5733 5733 5735 5743 5754 5752 5755 5763 5776 5788 5791 5795 5800 5805 5807 5811 5817 5818 5816 5813 5807 5800 5793 5786 5779 5772 5764 5755 5746 5737 5729 5723 5716 5709 5704 5698 5691 5686
5698 5703 5719 5725 5723 5720 5720 5720 5727 5737 5745 5743 5747 5755 5771 5780 5782 5786 5789 5793 5796 5801 5805 5806 5807 5807 5802 5796 5791 5785 5778 5771 5762 5754 5745 5737 5728 5719 5713 5707 5701 5695 5687 5680
5696 5711 5719 5712 5708 5706 5712 5716 5724 5728 5738 5742 5739 5745 5760 5771 5777 5778 5782 5784 5788 5789 5791 5794 5796 5798 5797 5793 5789 5784 5777 5769 5760 5751 5741 5731 5722 5714 5707 5701 5696 5690 5681 5676
5696 5708 5705 5701 5704 5706 5706 5722 5722 5722 5722 5732 5735 5733 5754 5762 5762 5763 5766 5770 5773 5777 5780 5782 5784 5785 5786 5787 5785 5780 5773 5765 5755 5746 5738 5729 5720 5712 5705 5698 5690 5682 5675 5669
5690 5699 5697 5695 5705 5708 5713 5724 5720 5719 5718 5720 5729 5724 5748 5754 5748 5748 5748 5749 5753 5759 5762 5765 5768 5770 5772 5774 5774 5770 5764 5755 5748 5740 5733 5724 5716 5708 5699 5690 5683 5675 5669 5663
5695 5702 5703 5704 5710 5712 5714 5711 5711 5713 5716 5704 5723 5722 5735 5742 5735 5732 5731 5731 5734 5739 5743 5746 5751 5754 5756 5759 5758 5755 5749 5742 5736 5729 5722 5715 5708 5699 5690 5682 5674 5667 5661 5655
5681 5691 5700 5706 5699 5703 5703 5695 5689 5692 5698 5709 5730 5720 5728 5723 5723 5719 5716 5715 5718 5722 5724 5726 5729 5732 5735 5737 5737 5736 5732 5725 5721 5715 5709 5704 5697 5689 5681 5673 5665 5657 5651 5644
5671 5678 5694 5699 5698 5697 5697 5698 5690 5691 5703 5719 5717 5717 5718 5717 5713 5710 5707 5705 5705 5705 5706 5707 5709 5712 5713 5714 5716 5715 5712 5708 5704 5699 5693 5688 5682 5677 5669 5662 5655 5647 5640 5633
5675 5678 5696 5701 5705 5704 5696 5698 5713 5705 5706 5707 5718 5713 5703 5707 5701 5698 5695 5693 5690 5689 5689 5690 5691 5693 5695 5695 5696 5696 5694 5691 5687 5683 5678 5672 5667 5661 5654 5647 5641 5634 5627 5620
5677 5671 5688 5697 5700 5701 5706 5705 5699 5692 5684 5687 5706 5709 5710 5697 5691 5688 5684 5680 5677 5675 5675 5674 5675 5676 5678 5679 5679 5679 5678 5675 5671 5667 5663 5657 5651 5645 5639 5632 5624 5618 5611 5604
5674 5666 5677 5685 5684 5689 5689 5691 5692 5696 5701 5693 5695 5708 5708 5699 5689 5680 5673 5669 5666 5663 5661 5661 5661 5662 5663 5665 5665 5663 5661 5658 5654 5650 5645 5639 5634 5628 5622 5615 5608 5601 5594 5587
5667 5667 5670 5680 5693 5698 5695 5694 5692 5682 5685 5693 5696 5693 5694 5691 5683 5674 5665 5659 5655 5652 5649 5648 5647 5648 5649 5649 5648 5646 5644 5640 5636 5631 5627 5622 5616 5610 5603 5596 5589 5583 5576 5570
5657 5657 5656 5666 5673 5682 5684 5688 5692 5692 5690 5689 5688 5684 5678 5675 5669 5663 5656 5650 5645 5641 5638 5636 5635 5633 5632 5631 5629 5627 5624 5621 5617 5614 5609 5603 5597 5591 5584 5577 5570 5564 5557 5551
5650 5653 5655 5656 5666 5673 5672 5677 5682 5683 5682 5684 5688 5677 5665 5661 5656 5650 5645 5640 5635 5631 5627 5624 5620 5617 5614 5613 5611 5608 5605 5602 5598 5593 5588 5582 5576 5570 5563 5557 5551 5545 5539 5533
5645 5647 5651 5656 5662 5666 5664 5667 5671 5672 5676 5677 5679 5672 5664 5656 5649 5642 5636 5630 5624 5618 5614 5610 5606 5602 5598 5595 5591 5588 5585 5581 5577 5573 5568 5561 5555 5550 5544 5537 5531 5526 5520 5515
5635 5635 5641 5643 5650 5653 5652 5656 5659 5660 5663 5666 5665 5656 5656 5646 5638 5629 5622 5617 5610 5604 5598 5593 5589 5585 5581 5577 5573 5570 5566 5562 5558 5554 5548 5542 5537 5531 5525 5520 5514 5508 5503 5497
5627 5625 5628 5634 5641 5640 5637 5643 5644 5646 5650 5650 5648 5644 5637 5627 5618 5612 5607 5602 5595 5589 5582 5576 5571 5567 5564 5560 5557 5553 5549 5545 5540 5535 5530 5524 5519 5514 5509 5505 5499 5493 5487 5482
5612 5616 5620 5625 5624 5613 5625 5632 5631 5629 5628 5632 5631 5627 5619 5606 5597 5593 5591 5587 5579 5572 5566 5560 5555 5551 5547 5544 5540 5537 5533 5528 5523 5518 5513 5509 5504 5499 5494 5489 5484 5478 5473 5469
5608 5608 5610 5613 5615 5618 5615 5616 5616 5615 5610 5611 5609 5602 5593 5588 5583 5572 5568 5566 5561 5555 5550 5545 5541 5537 5533 5529 5526 5522 5518 5513 5509 5504 5499 5495 5491 5485 5480 5475 5469 5464 5459 5455
5605 5604 5604 5603 5599 5600 5596 5603 5608 5606 5596 5594 5593 5587 5583 5582 5578 5559 5551 5548 5544 5539 5536 5532 5529 5525 5521 5516 5513 5510 5505 5501 5497 5492 5486 5481 5477 5472 5466 5460 5455 5450 5445 5441
5595 5596 5595 5595 5592 5593 5585 5594 5600 5588 5578 5581 5582 5578 5575 5570 5564 5547 5539 5535 5531 5527 5523 5520 5517 5514 5509 5506 5503 5499 5494 5489 5484 5479 5474 5468 5463 5458 5452 5447 5442 5437 5433 5428
5584 5584 5585 5585 5581 5574 5574 5584 5576 5567 5571 5572 5570 5566 5559 5550 5541 5533 5528 5523 5520 5516 5513 5511 5508 5504 5499 5495 5492 5488 5484 5478 5473 5468 5462 5456 5451 5447 5441 5435 5430 5425 5421 5417
5580 5577 5577 5573 5567 5565 5566 5563 5562 5563 5563 5562 5560 5554 5546 5538 5530 5524 5519 5515 5511 5509 5506 5503 5500 5495 5491 5487 5484 5479 5473 5468 5463 5458 5451 5446 5440 5434 5429 5425 5420 5416 5411 5407
5576 5574 5573 5571 5568 5563 5561 5559 5558 5557 5556 5553 5550 5544 5537 5529 5522 5516 5512 5507 5504 5501 5498 5495 5492 5488 5483 5479 5474 5469 5464 5458 5454 5448 5442 5436 5430 5425 5419 5414 5411 5406 5401 5397
5570 5570 5569 5567 5564 5560 5555 5552 5550 5547 5546 5543 5539 5534 5527 5521 5515 5510 5505 5501 5498 5495 5491 5488 5485 5480 5475 5470 5465 5460 5455 5450 5445 5439 5433 5428 5423 5418 5411 5406 5399 5395 5389 5382
5569 5566 5564 5561 5559 5557 5550 5544 5542 5539 5536 5533 5528 5522 5516 5513 5507 5503 5500 5496 5493 5488 5484 5480 5476 5472 5468 5463 5458 5452 5447 5441 5435 5431 5425 5421 5416 5411 5407 5401 5394 5382 5379 5374